Путбус

Германия     54°21′21″N   13°28′32″E
темп.,
°C
ветер,
м/с
пор.,
м/с
влажн.,
%
обл.,
%
осадки,
мм/ч
давл.,
гПа
погр.,
м
21 апреля, ср
ср2123:00+7зсз22765 0.0 101410
02:00+6зсз22785 0.0 101422
05:00+6з45775 0.0 101374
08:00+7з58755 0.0 1012145
11:00+10зсз696799 0.0 1012257
14:00+10зсз81174100 0.0 1012466
17:00+9зсз1013571 0.0 1011724
20:00+6зсз1114611 0.0 10121318
22 апреля, чт
чт2223:00+5зсз1114675 0.0 10111271
02:00+5з1114766 0.0 1011965
05:00+5зсз11147431 0.0 1010931
08:00+5з9117776 0.0 1012923
11:00+7зсз10135991 0.1 10131511
14:00+8зсз10125390 0.1 10141335
17:00+8ссз912526 0.1 10151245
20:00+6сз610590 0.1 1017450
23 апреля, пт
пт2323:00+5з57662 0.0 1017156
02:00+5зсз812797 0.1 1017536
05:00+4зсз7118467 0.0 1017502
08:00+6сз596488 0.3 1019840
11:00+7сз1014540 0.0 10211763
14:00+7ссз1014480 0.0 10231755
17:00+8сз913470 0.0 10231405
20:00+6сз510560 0.0 1024469
24 апреля, сб
сб2423:00+5з46658 0.0 1024131
02:00+4з34755 0.0 1023109
05:00+4зсз58876 0.0 1023299
08:00+5зсз568410 0.0 1023543
11:00+7ссз786721 0.4 10241131
14:00+7ссз910440 0.4 10251745
17:00+7ссз1012470 0.0 10251626
20:00+6ссз811560 0.0 1025884
25 апреля, вс
вс2523:00+5сз610652 0.0 1026591
02:00+4сз610720 0.0 1026402
05:00+4сз597232 0.1 1026301
08:00+6ссз696510 0.1 1026896
11:00+7сз8116120 0.1 10261527
14:00+8сз911555 0.1 10251479
17:00+7ссз8105223 0.0 10251377
20:00+6сз711560 0.0 1024889